Tracking 34747 objects as of 16-Jul-2026
HD Live streaming from Space Station
objects crossing your sky now

BREEZE-M DEB

Track BREEZE-M DEB now!
10-day predictions


NORAD ID: 32036
Int'l Code: 2006-006P
Perigee: 465.2 km
Apogee: 14,601.8 km
Inclination: 51.6 °
Period: 272.0 minutes
Semi major axis: 13904 km
RCS: 0.044 m2 (small)
Launch date: February 28, 2006
Source: Commonwealth of Independent States (former USSR) (CIS)
Launch site: TYURATAM MISSILE AND SPACE COMPLEX (TTMTR)

Note: This is SATELLITE DEBRIS
Your satellite tracking list
Your tracking list is empty




NASA's NSSDC Master Catalog

Two Line Element Set (TLE):
1 32036U 06006P   26197.08306366  .00000562  00000-0  70697-3 0  9998
2 32036  51.6493 101.6836 5083478  69.0907 336.9319  5.29506329372046
Source of the keplerian elements: AFSPC